Time,TemperatureF,DewpointF,PressureIn,WindDirection,WindDirectionDegrees,WindSpeedMPH,WindSpeedGustMPH,Humidity,HourlyPrecipIn,Conditions,Clouds,dailyrainin,SoftwareType,DateUTC
2013-01-25 00:02:00,21.0,9.0,30.36,ESE,110,1.0,-999.0,59,-99.99,,,-99.99,,2013-01-25 06:02:00,
2013-01-25 00:11:00,21.0,9.0,30.36,ESE,110,1.0,-999.0,59,-99.99,,,-99.99,,2013-01-25 06:11:00,
2013-01-25 00:21:00,20.0,8.0,30.35,East,101,1.0,-999.0,59,-99.99,,,-99.99,,2013-01-25 06:21:00,
2013-01-25 00:32:00,20.0,8.0,30.33,ESE,103,1.0,-999.0,59,-99.99,,,-99.99,,2013-01-25 06:32:00,
2013-01-25 00:42:00,20.0,8.0,30.33,ESE,103,1.0,-999.0,59,-99.99,,,-99.99,,2013-01-25 06:42:00,
2013-01-25 00:52:00,20.0,8.0,30.33,East,85,1.0,-999.0,60,-99.99,,,-99.99,,2013-01-25 06:52:00,
2013-01-25 01:02:00,20.0,8.0,30.34,East,86,2.0,-999.0,60,-99.99,,,-99.99,,2013-01-25 07:02:00,
2013-01-25 01:11:00,20.0,8.0,30.34,East,86,2.0,-999.0,60,-99.99,,,-99.99,,2013-01-25 07:11:00,
2013-01-25 01:21:00,20.0,8.0,30.32,East,81,1.0,-999.0,60,-99.99,,,-99.99,,2013-01-25 07:21:00,
2013-01-25 01:32:00,20.0,8.0,30.30,East,83,1.0,-999.0,59,-99.99,,,-99.99,,2013-01-25 07:32:00,
2013-01-25 01:42:00,20.0,8.0,30.30,East,83,1.0,-999.0,59,-99.99,,,-99.99,,2013-01-25 07:42:00,
2013-01-25 01:51:00,20.0,8.0,30.29,ESE,102,2.0,-999.0,60,-99.99,,,-99.99,,2013-01-25 07:51:00,
2013-01-25 02:01:00,20.0,8.0,30.29,ESE,115,1.0,-999.0,60,-99.99,,,-99.99,,2013-01-25 08:01:00,
2013-01-25 02:11:00,20.0,8.0,30.29,ESE,108,1.0,-999.0,60,-99.99,,,-99.99,,2013-01-25 08:11:00,
2013-01-25 02:21:00,20.0,8.0,30.29,ESE,108,1.0,-999.0,60,-99.99,,,-99.99,,2013-01-25 08:21:00,
2013-01-25 02:32:00,20.0,9.0,30.28,East,96,1.0,-999.0,61,-99.99,,,-99.99,,2013-01-25 08:32:00,
2013-01-25 02:41:00,20.0,9.0,30.28,East,96,1.0,-999.0,61,-99.99,,,-99.99,,2013-01-25 08:41:00,
2013-01-25 02:52:00,20.0,8.0,30.27,East,98,1.0,-999.0,60,-99.99,,,-99.99,,2013-01-25 08:52:00,
2013-01-25 03:02:00,20.0,8.0,30.26,ESE,105,2.0,-999.0,60,-99.99,,,-99.99,,2013-01-25 09:02:00,
2013-01-25 03:11:00,20.0,8.0,30.26,ESE,105,2.0,-999.0,60,-99.99,,,-99.99,,2013-01-25 09:11:00,
2013-01-25 03:21:00,20.0,9.0,30.25,ESE,103,1.0,-999.0,61,-99.99,,,-99.99,,2013-01-25 09:21:00,
2013-01-25 03:31:00,20.0,9.0,30.24,East,95,1.0,-999.0,61,-99.99,,,-99.99,,2013-01-25 09:31:00,
2013-01-25 03:41:00,20.0,9.0,30.24,East,95,1.0,-999.0,61,-99.99,,,-99.99,,2013-01-25 09:41:00,
2013-01-25 03:51:00,20.0,9.0,30.24,ESE,107,1.0,-999.0,61,-99.99,,,-99.99,,2013-01-25 09:51:00,
2013-01-25 04:02:00,20.0,10.0,30.23,East,96,0.0,-999.0,64,-99.99,,,-99.99,,2013-01-25 10:02:00,
2013-01-25 04:12:00,20.0,10.0,30.23,East,96,0.0,-999.0,64,-99.99,,,-99.99,,2013-01-25 10:12:00,
2013-01-25 04:21:00,19.0,12.0,30.22,SE,128,1.0,-999.0,74,-99.99,,,-99.99,,2013-01-25 10:21:00,
2013-01-25 04:32:00,19.0,14.0,30.21,ESE,114,1.0,-999.0,80,-99.99,,,-99.99,,2013-01-25 10:32:00,
2013-01-25 04:42:00,19.0,14.0,30.21,ESE,114,1.0,-999.0,80,-99.99,,,-99.99,,2013-01-25 10:42:00,
2013-01-25 04:51:00,18.0,14.0,30.20,ESE,117,0.0,-999.0,83,-99.99,,,-99.99,,2013-01-25 10:51:00,
2013-01-25 05:02:00,18.0,14.0,30.18,East,90,1.0,-999.0,85,-99.99,,,-99.99,,2013-01-25 11:02:00,
2013-01-25 05:11:00,18.0,14.0,30.18,East,90,1.0,-999.0,85,-99.99,,,-99.99,,2013-01-25 11:11:00,
2013-01-25 05:22:00,18.0,15.0,30.18,ESE,105,1.0,-999.0,86,-99.99,,,-99.99,,2013-01-25 11:22:00,
2013-01-25 05:32:00,18.0,15.0,30.18,SE,138,0.0,-999.0,86,-99.99,,,-99.99,,2013-01-25 11:32:00,
2013-01-25 05:42:00,18.0,15.0,30.18,SE,138,0.0,-999.0,86,-99.99,,,-99.99,,2013-01-25 11:42:00,
2013-01-25 05:52:00,18.0,15.0,30.20,SE,133,0.0,-999.0,86,-99.99,,,-99.99,,2013-01-25 11:52:00,
2013-01-25 06:02:00,18.0,15.0,30.21,SE,133,0.0,-999.0,87,-99.99,,,-99.99,,2013-01-25 12:02:00,
2013-01-25 06:11:00,18.0,15.0,30.21,SE,133,0.0,-999.0,87,-99.99,,,-99.99,,2013-01-25 12:11:00,
2013-01-25 06:22:00,18.0,15.0,30.19,SE,133,0.0,-999.0,88,-99.99,,,-99.99,,2013-01-25 12:22:00,
2013-01-25 06:32:00,18.0,15.0,30.18,SE,140,0.0,-999.0,88,-99.99,,,-99.99,,2013-01-25 12:32:00,
2013-01-25 06:42:00,18.0,15.0,30.18,SE,140,0.0,-999.0,88,-99.99,,,-99.99,,2013-01-25 12:42:00,
2013-01-25 06:53:00,18.0,15.0,30.18,SE,140,0.0,-999.0,88,-99.99,,,-99.99,,2013-01-25 12:53:00,
2013-01-25 07:02:00,18.0,15.0,30.16,SE,140,0.0,-999.0,88,-99.99,,,-99.99,,2013-01-25 13:02:00,
2013-01-25 07:11:00,18.0,15.0,30.16,SE,140,0.0,-999.0,88,-99.99,,,-99.99,,2013-01-25 13:11:00,
2013-01-25 07:22:00,18.0,15.0,30.16,SE,140,0.0,-999.0,88,-99.99,,,-99.99,,2013-01-25 13:22:00,
2013-01-25 07:32:00,19.0,16.0,30.16,SE,142,0.0,-999.0,89,-99.99,,,-99.99,,2013-01-25 13:32:00,
2013-01-25 07:42:00,19.0,16.0,30.16,SE,142,0.0,-999.0,89,-99.99,,,-99.99,,2013-01-25 13:42:00,
2013-01-25 07:52:00,19.0,16.0,30.17,SE,142,0.0,-999.0,88,-99.99,,,-99.99,,2013-01-25 13:52:00,
2013-01-25 08:03:00,19.0,16.0,30.15,SE,144,1.0,-999.0,88,-99.99,,,-99.99,,2013-01-25 14:03:00,
2013-01-25 08:12:00,19.0,16.0,30.15,SE,144,1.0,-999.0,88,-99.99,,,-99.99,,2013-01-25 14:12:00,
2013-01-25 08:22:00,19.0,16.0,30.15,SSE,150,0.0,-999.0,87,-99.99,,,-99.99,,2013-01-25 14:22:00,
2013-01-25 08:32:00,20.0,16.0,30.14,SSW,209,1.0,-999.0,86,-99.99,,,-99.99,,2013-01-25 14:32:00,
2013-01-25 08:42:00,20.0,16.0,30.14,SSW,209,1.0,-999.0,86,-99.99,,,-99.99,,2013-01-25 14:42:00,
2013-01-25 08:53:00,20.0,16.0,30.14,SSE,148,0.0,-999.0,86,-99.99,,,-99.99,,2013-01-25 14:53:00,
2013-01-25 09:02:00,20.0,16.0,30.14,SSE,148,1.0,-999.0,86,-99.99,,,-99.99,,2013-01-25 15:02:00,
2013-01-25 09:12:00,20.0,16.0,30.14,SSE,148,1.0,-999.0,86,-99.99,,,-99.99,,2013-01-25 15:12:00,
2013-01-25 09:22:00,21.0,17.0,30.14,SSW,196,1.0,-999.0,85,-99.99,,,-99.99,,2013-01-25 15:22:00,
2013-01-25 09:32:00,21.0,17.0,30.14,SSW,211,1.0,-999.0,84,-99.99,,,-99.99,,2013-01-25 15:32:00,
2013-01-25 09:42:00,21.0,17.0,30.14,SSW,211,1.0,-999.0,84,-99.99,,,-99.99,,2013-01-25 15:42:00,
2013-01-25 09:53:00,22.0,17.0,30.14,SSW,212,2.0,-999.0,81,-99.99,,,-99.99,,2013-01-25 15:53:00,
2013-01-25 10:03:00,23.0,17.0,30.13,SW,228,4.0,-999.0,78,-99.99,,,-99.99,,2013-01-25 16:03:00,
2013-01-25 10:12:00,23.0,17.0,30.13,SW,228,4.0,-999.0,78,-99.99,,,-99.99,,2013-01-25 16:12:00,
2013-01-25 10:22:00,23.0,17.0,30.12,SW,216,5.0,-999.0,78,-99.99,,,-99.99,,2013-01-25 16:22:00,
2013-01-25 10:32:00,24.0,18.0,30.12,SW,221,7.0,-999.0,76,-99.99,,,-99.99,,2013-01-25 16:32:00,
2013-01-25 10:42:00,24.0,18.0,30.12,SW,221,7.0,-999.0,76,-99.99,,,-99.99,,2013-01-25 16:42:00,
2013-01-25 10:53:00,24.0,18.0,30.12,SW,223,8.0,-999.0,77,-99.99,,,-99.99,,2013-01-25 16:53:00,
2013-01-25 11:02:00,25.0,19.0,30.11,WSW,246,9.0,-999.0,76,-99.99,,,-99.99,,2013-01-25 17:02:00,
2013-01-25 11:12:00,25.0,19.0,30.11,WSW,246,9.0,-999.0,76,-99.99,,,-99.99,,2013-01-25 17:12:00,
2013-01-25 11:22:00,25.0,19.0,30.10,WSW,248,9.0,-999.0,76,-99.99,,,-99.99,,2013-01-25 17:22:00,
2013-01-25 11:32:00,25.0,19.0,30.09,WSW,248,9.0,-999.0,76,-99.99,,,-99.99,,2013-01-25 17:32:00,
2013-01-25 11:42:00,25.0,19.0,30.09,WSW,248,9.0,-999.0,76,-99.99,,,-99.99,,2013-01-25 17:42:00,
2013-01-25 11:53:00,26.0,19.0,30.09,WSW,246,8.0,-999.0,76,-99.99,,,-99.99,,2013-01-25 17:53:00,
2013-01-25 12:03:00,26.0,19.0,30.08,WSW,250,9.0,-999.0,74,-99.99,,,-99.99,,2013-01-25 18:03:00,
2013-01-25 12:12:00,26.0,19.0,30.08,WSW,250,9.0,-999.0,74,-99.99,,,-99.99,,2013-01-25 18:12:00,
2013-01-25 12:23:00,27.0,20.0,30.07,West,259,10.0,-999.0,74,-99.99,,,-99.99,,2013-01-25 18:23:00,
2013-01-25 12:32:00,27.0,20.0,30.06,WSW,243,8.0,-999.0,75,-99.99,,,-99.99,,2013-01-25 18:32:00,
2013-01-25 12:42:00,27.0,20.0,30.06,WSW,243,8.0,-999.0,75,-99.99,,,-99.99,,2013-01-25 18:42:00,
2013-01-25 12:52:00,29.0,21.0,30.04,SW,234,9.0,-999.0,73,-99.99,,,-99.99,,2013-01-25 18:52:00,
2013-01-25 13:02:00,29.0,21.0,30.04,WSW,239,10.0,-999.0,73,-99.99,,,-99.99,,2013-01-25 19:02:00,
2013-01-25 13:12:00,29.0,21.0,30.04,WSW,239,10.0,-999.0,73,-99.99,,,-99.99,,2013-01-25 19:12:00,
2013-01-25 13:22:00,29.0,21.0,30.03,SW,217,12.0,-999.0,71,-99.99,,,-99.99,,2013-01-25 19:22:00,
2013-01-25 13:32:00,30.0,21.0,30.02,West,263,11.0,-999.0,70,-99.99,,,-99.99,,2013-01-25 19:32:00,
2013-01-25 13:42:00,30.0,21.0,30.02,West,263,11.0,-999.0,70,-99.99,,,-99.99,,2013-01-25 19:42:00,
2013-01-25 13:53:00,30.0,21.0,30.02,West,263,11.0,-999.0,70,-99.99,,,-99.99,,2013-01-25 19:53:00,
2013-01-25 14:02:00,31.0,21.0,30.02,SW,233,13.0,-999.0,65,-99.99,,,-99.99,,2013-01-25 20:02:00,
2013-01-25 14:12:00,31.0,21.0,30.02,SW,233,13.0,-999.0,65,-99.99,,,-99.99,,2013-01-25 20:12:00,
2013-01-25 14:22:00,32.0,21.0,30.02,WSW,243,15.0,-999.0,63,-99.99,,,-99.99,,2013-01-25 20:22:00,
2013-01-25 14:32:00,33.0,21.0,30.01,WSW,240,13.0,-999.0,62,-99.99,,,-99.99,,2013-01-25 20:32:00,
2013-01-25 14:42:00,33.0,21.0,30.01,WSW,240,13.0,-999.0,62,-99.99,,,-99.99,,2013-01-25 20:42:00,
2013-01-25 14:52:00,33.0,21.0,30.01,WSW,246,14.0,-999.0,62,-99.99,,,-99.99,,2013-01-25 20:52:00,
2013-01-25 15:02:00,34.0,22.0,30.01,WSW,249,14.0,-999.0,60,-99.99,,,-99.99,,2013-01-25 21:02:00,
2013-01-25 15:12:00,34.0,22.0,30.01,WSW,249,14.0,-999.0,60,-99.99,,,-99.99,,2013-01-25 21:12:00,
2013-01-25 15:22:00,34.0,21.0,30.01,SW,232,13.0,-999.0,59,-99.99,,,-99.99,,2013-01-25 21:22:00,
2013-01-25 15:32:00,34.0,22.0,30.02,West,266,13.0,-999.0,60,-99.99,,,-99.99,,2013-01-25 21:32:00,
2013-01-25 15:42:00,34.0,22.0,30.02,West,266,13.0,-999.0,60,-99.99,,,-99.99,,2013-01-25 21:42:00,
2013-01-25 15:52:00,34.0,22.0,30.01,WSW,254,16.0,-999.0,61,-99.99,,,-99.99,,2013-01-25 21:52:00,
2013-01-25 16:02:00,35.0,23.0,30.01,West,267,13.0,-999.0,60,-99.99,,,-99.99,,2013-01-25 22:02:00,
2013-01-25 16:11:00,35.0,23.0,30.01,West,267,13.0,-999.0,60,-99.99,,,-99.99,,2013-01-25 22:11:00,
2013-01-25 16:22:00,35.0,22.0,30.01,West,269,12.0,-999.0,58,-99.99,,,-99.99,,2013-01-25 22:22:00,
2013-01-25 16:32:00,35.0,22.0,30.02,West,261,11.0,-999.0,58,-99.99,,,-99.99,,2013-01-25 22:32:00,
2013-01-25 16:42:00,35.0,22.0,30.02,West,261,11.0,-999.0,58,-99.99,,,-99.99,,2013-01-25 22:42:00,
2013-01-25 16:52:00,34.0,22.0,30.03,WNW,293,12.0,-999.0,60,-99.99,,,-99.99,,2013-01-25 22:52:00,
2013-01-25 17:02:00,33.0,21.0,30.04,WSW,252,11.0,-999.0,61,-99.99,,,-99.99,,2013-01-25 23:02:00,
2013-01-25 17:12:00,33.0,21.0,30.04,WSW,252,11.0,-999.0,61,-99.99,,,-99.99,,2013-01-25 23:12:00,
2013-01-25 17:22:00,32.0,21.0,30.05,WNW,294,16.0,-999.0,64,-99.99,,,-99.99,,2013-01-25 23:22:00,
2013-01-25 17:32:00,31.0,22.0,30.06,West,269,11.0,-999.0,69,-99.99,,,-99.99,,2013-01-25 23:32:00,
2013-01-25 17:42:00,31.0,22.0,30.06,West,269,11.0,-999.0,69,-99.99,,,-99.99,,2013-01-25 23:42:00,
2013-01-25 17:53:00,30.0,22.0,30.06,WNW,284,10.0,-999.0,72,-99.99,,,-99.99,,2013-01-25 23:53:00,
2013-01-25 18:02:00,29.0,21.0,30.07,WNW,289,7.0,-999.0,73,-99.99,,,-99.99,,2013-01-26 00:02:00,
2013-01-25 18:11:00,29.0,21.0,30.07,WNW,289,7.0,-999.0,73,-99.99,,,-99.99,,2013-01-26 00:11:00,
2013-01-25 18:22:00,28.0,21.0,30.08,West,275,7.0,-999.0,75,-99.99,,,-99.99,,2013-01-26 00:22:00,
2013-01-25 18:32:00,28.0,21.0,30.09,West,275,6.0,-999.0,75,-99.99,,,-99.99,,2013-01-26 00:32:00,
2013-01-25 18:42:00,28.0,21.0,30.09,West,275,6.0,-999.0,75,-99.99,,,-99.99,,2013-01-26 00:42:00,
2013-01-25 18:53:00,28.0,21.0,30.09,West,275,6.0,-999.0,75,-99.99,,,-99.99,,2013-01-26 00:53:00,
2013-01-25 19:01:00,27.0,20.0,30.09,West,263,5.0,-999.0,76,-99.99,,,-99.99,,2013-01-26 01:01:00,
2013-01-25 19:11:00,27.0,20.0,30.09,West,263,5.0,-999.0,76,-99.99,,,-99.99,,2013-01-26 01:11:00,
2013-01-25 19:22:00,27.0,20.0,30.09,West,263,5.0,-999.0,76,-99.99,,,-99.99,,2013-01-26 01:22:00,
2013-01-25 19:32:00,27.0,21.0,30.10,WNW,284,2.0,-999.0,77,-99.99,,,-99.99,,2013-01-26 01:32:00,
2013-01-25 19:42:00,27.0,21.0,30.10,WNW,284,2.0,-999.0,77,-99.99,,,-99.99,,2013-01-26 01:42:00,
2013-01-25 19:52:00,27.0,21.0,30.11,West,261,6.0,-999.0,77,-99.99,,,-99.99,,2013-01-26 01:52:00,
2013-01-25 20:01:00,27.0,20.0,30.11,NW,308,7.0,-999.0,75,-99.99,,,-99.99,,2013-01-26 02:01:00,
2013-01-25 20:11:00,27.0,20.0,30.11,NW,308,7.0,-999.0,75,-99.99,,,-99.99,,2013-01-26 02:11:00,
2013-01-25 20:22:00,26.0,18.0,30.11,WNW,292,7.0,-999.0,71,-99.99,,,-99.99,,2013-01-26 02:22:00,
2013-01-25 20:32:00,25.0,16.0,30.12,WNW,298,8.0,-999.0,67,-99.99,,,-99.99,,2013-01-26 02:32:00,
2013-01-25 20:42:00,25.0,16.0,30.12,WNW,298,8.0,-999.0,67,-99.99,,,-99.99,,2013-01-26 02:42:00,
2013-01-25 20:52:00,25.0,15.0,30.12,WNW,289,10.0,-999.0,64,-99.99,,,-99.99,,2013-01-26 02:52:00,
2013-01-25 21:02:00,24.0,13.0,30.13,WNW,293,9.0,-999.0,63,-99.99,,,-99.99,,2013-01-26 03:02:00,
2013-01-25 21:11:00,24.0,13.0,30.13,WNW,293,9.0,-999.0,63,-99.99,,,-99.99,,2013-01-26 03:11:00,
2013-01-25 21:21:00,23.0,12.0,30.13,West,273,8.0,-999.0,63,-99.99,,,-99.99,,2013-01-26 03:21:00,
2013-01-25 21:31:00,23.0,13.0,30.14,NW,304,8.0,-999.0,64,-99.99,,,-99.99,,2013-01-26 03:31:00,
2013-01-25 21:42:00,23.0,13.0,30.14,NW,304,8.0,-999.0,64,-99.99,,,-99.99,,2013-01-26 03:42:00,
2013-01-25 21:52:00,22.0,11.0,30.16,WNW,284,8.0,-999.0,63,-99.99,,,-99.99,,2013-01-26 03:52:00,
2013-01-25 22:02:00,22.0,12.0,30.17,WNW,286,6.0,-999.0,64,-99.99,,,-99.99,,2013-01-26 04:02:00,
2013-01-25 22:12:00,22.0,12.0,30.17,WNW,286,6.0,-999.0,64,-99.99,,,-99.99,,2013-01-26 04:12:00,
2013-01-25 22:21:00,21.0,11.0,30.18,WNW,287,6.0,-999.0,65,-99.99,,,-99.99,,2013-01-26 04:21:00,
2013-01-25 22:32:00,21.0,11.0,30.19,WNW,300,5.0,-999.0,66,-99.99,,,-99.99,,2013-01-26 04:32:00,
2013-01-25 22:42:00,21.0,11.0,30.19,WNW,300,5.0,-999.0,66,-99.99,,,-99.99,,2013-01-26 04:42:00,
2013-01-25 22:52:00,20.0,11.0,30.20,West,265,5.0,-999.0,68,-99.99,,,-99.99,,2013-01-26 04:52:00,
2013-01-25 23:03:00,20.0,11.0,30.21,West,262,4.0,-999.0,69,-99.99,,,-99.99,,2013-01-26 05:03:00,
2013-01-25 23:12:00,20.0,11.0,30.21,West,262,4.0,-999.0,69,-99.99,,,-99.99,,2013-01-26 05:12:00,
2013-01-25 23:23:00,19.0,11.0,30.22,WNW,291,5.0,-999.0,71,-99.99,,,-99.99,,2013-01-26 05:23:00,
2013-01-25 23:33:00,19.0,11.0,30.22,WNW,288,4.0,-999.0,71,-99.99,,,-99.99,,2013-01-26 05:33:00,
2013-01-25 23:41:00,19.0,11.0,30.22,WNW,288,4.0,-999.0,71,-99.99,,,-99.99,,2013-01-26 05:41:00,
2013-01-25 23:52:00,19.0,11.0,30.23,WNW,282,5.0,-999.0,72,-99.99,,,-99.99,,2013-01-26 05:52:00,